Tracking 30743 objects as of 21-Jun-2025
HD Live streaming from Space Station
objects crossing your sky now

STARLINK-3928

Track STARLINK-3928 now!
10-day predictions
STARLINK-3928 is classified as:


NORAD ID: 52606
Int'l Code: 2022-052J
Perigee: 545.9 km
Apogee: 547.8 km
Inclination: 53.2 °
Period: 95.4 minutes
Semi major axis: 6917 km
RCS: Unknown
Launch date: May 14, 2022
Source: United States (US)
Launch site: AIR FORCE EASTERN TEST RANGE (AFETR)
Your satellite tracking list
Your tracking list is empty




NASA's NSSDC Master Catalog

Two Line Element Set (TLE):
1 52606U 22052J   25171.27520676 -.00000136  00000-0  95254-5 0  9992
2 52606  53.2180  17.1432 0001369  87.6386 272.4763 15.08835709171247
Source of the keplerian elements: AFSPC